Time,TemperatureF,DewpointF,PressureIn,WindDirection,WindDirectionDegrees,WindSpeedMPH,WindSpeedGustMPH,Humidity,HourlyPrecipIn,Conditions,Clouds,dailyrainin,SolarRadiationWatts/m^2,SoftwareType,DateUTC
2013-03-20 00:00:00,59.5,31.8,29.94,ENE,68,0.0,3.0,35,0.00,,,0.00,0,LWC V2.00 B727,2013-03-20 07:00:00,
2013-03-20 00:10:00,59.5,31.8,29.94,ENE,68,0.0,3.0,35,0.00,,,0.00,0,LWC V2.00 B727,2013-03-20 07:10:00,
2013-03-20 00:20:00,59.5,31.8,29.94,ENE,68,0.0,3.0,35,0.00,,,0.00,0,LWC V2.00 B727,2013-03-20 07:20:00,
2013-03-20 00:30:00,59.5,31.8,29.94,ENE,68,0.0,3.0,35,0.00,,,0.00,0,LWC V2.00 B727,2013-03-20 07:30:00,
2013-03-20 00:40:00,60.2,31.0,29.94,ENE,68,0.0,1.0,33,0.00,,,0.00,0,LWC V2.00 B727,2013-03-20 07:40:00,
2013-03-20 00:50:00,60.2,31.0,29.94,ENE,68,0.0,1.0,33,0.00,,,0.00,0,LWC V2.00 B727,2013-03-20 07:50:00,
2013-03-20 01:00:00,60.2,31.0,29.94,ENE,68,0.0,1.0,33,0.00,,,0.00,0,LWC V2.00 B727,2013-03-20 08:00:00,
2013-03-20 01:10:00,60.0,30.8,29.94,ENE,68,0.0,1.0,33,0.00,,,0.00,0,LWC V2.00 B727,2013-03-20 08:10:00,
2013-03-20 01:20:00,60.0,30.8,29.94,ENE,68,0.0,1.0,33,0.00,,,0.00,0,LWC V2.00 B727,2013-03-20 08:20:00,
2013-03-20 01:30:00,60.0,30.8,29.94,ENE,68,0.0,1.0,33,0.00,,,0.00,0,LWC V2.00 B727,2013-03-20 08:30:00,
2013-03-20 01:40:00,60.3,30.3,29.95,North,0,0.0,0.0,32,0.00,,,0.00,0,LWC V2.00 B727,2013-03-20 08:40:00,
2013-03-20 01:50:00,60.3,30.3,29.95,North,0,0.0,0.0,32,0.00,,,0.00,0,LWC V2.00 B727,2013-03-20 08:50:00,
2013-03-20 02:00:00,60.3,30.3,29.95,North,0,0.0,0.0,32,0.00,,,0.00,0,LWC V2.00 B727,2013-03-20 09:00:00,
2013-03-20 02:10:00,60.0,30.8,29.95,ENE,68,1.0,4.0,33,0.00,,,0.00,0,LWC V2.00 B727,2013-03-20 09:10:00,
2013-03-20 02:20:00,60.0,30.8,29.95,ENE,68,1.0,4.0,33,0.00,,,0.00,0,LWC V2.00 B727,2013-03-20 09:20:00,
2013-03-20 02:30:00,60.0,30.8,29.95,ENE,68,1.0,4.0,33,0.00,,,0.00,0,LWC V2.00 B727,2013-03-20 09:30:00,
2013-03-20 02:40:00,58.9,31.3,29.94,ENE,68,1.0,4.0,35,0.00,,,0.00,0,LWC V2.00 B727,2013-03-20 09:40:00,
2013-03-20 02:50:00,58.9,31.3,29.94,ENE,68,1.0,4.0,35,0.00,,,0.00,0,LWC V2.00 B727,2013-03-20 09:50:00,
2013-03-20 03:00:00,58.9,31.3,29.94,ENE,68,1.0,4.0,35,0.00,,,0.00,0,LWC V2.00 B727,2013-03-20 10:00:00,
2013-03-20 03:10:00,59.2,31.6,29.93,ENE,68,1.0,4.0,35,0.00,,,0.00,0,LWC V2.00 B727,2013-03-20 10:10:00,
2013-03-20 03:20:00,59.2,31.6,29.93,ENE,68,1.0,4.0,35,0.00,,,0.00,0,LWC V2.00 B727,2013-03-20 10:20:00,
2013-03-20 03:30:00,59.2,31.6,29.93,ENE,68,1.0,4.0,35,0.00,,,0.00,0,LWC V2.00 B727,2013-03-20 10:30:00,
2013-03-20 03:40:00,58.5,31.0,29.93,ENE,68,1.0,3.0,35,0.00,,,0.00,0,LWC V2.00 B727,2013-03-20 10:40:00,
2013-03-20 03:50:00,58.5,31.0,29.93,ENE,68,1.0,3.0,35,0.00,,,0.00,0,LWC V2.00 B727,2013-03-20 10:50:00,
2013-03-20 04:00:00,58.5,31.0,29.93,ENE,68,1.0,3.0,35,0.00,,,0.00,0,LWC V2.00 B727,2013-03-20 11:00:00,
2013-03-20 04:10:00,58.4,30.9,29.93,ENE,68,0.0,3.0,35,0.00,,,0.00,0,LWC V2.00 B727,2013-03-20 11:10:00,
2013-03-20 04:20:00,58.4,30.9,29.93,ENE,68,0.0,3.0,35,0.00,,,0.00,0,LWC V2.00 B727,2013-03-20 11:20:00,
2013-03-20 04:30:00,58.4,30.9,29.93,ENE,68,0.0,3.0,35,0.00,,,0.00,0,LWC V2.00 B727,2013-03-20 11:30:00,
2013-03-20 04:40:00,58.4,30.9,29.93,ENE,68,0.0,3.0,35,0.00,,,0.00,0,LWC V2.00 B727,2013-03-20 11:40:00,
2013-03-20 04:50:00,58.4,30.9,29.93,ENE,68,0.0,3.0,35,0.00,,,0.00,0,LWC V2.00 B727,2013-03-20 11:50:00,
2013-03-20 05:00:00,58.4,30.9,29.93,ENE,68,0.0,3.0,35,0.00,,,0.00,0,LWC V2.00 B727,2013-03-20 12:00:00,
2013-03-20 05:10:00,58.7,30.4,29.93,ENE,68,0.0,4.0,34,0.00,,,0.00,0,LWC V2.00 B727,2013-03-20 12:10:00,
2013-03-20 05:20:00,58.7,30.4,29.93,ENE,68,0.0,4.0,34,0.00,,,0.00,0,LWC V2.00 B727,2013-03-20 12:20:00,
2013-03-20 05:30:00,58.5,30.2,29.93,ENE,68,0.0,2.0,34,0.00,,,0.00,0,LWC V2.00 B727,2013-03-20 12:30:00,
2013-03-20 05:40:00,58.5,30.2,29.93,ENE,68,0.0,2.0,34,0.00,,,0.00,0,LWC V2.00 B727,2013-03-20 12:40:00,
2013-03-20 05:50:00,58.5,30.2,29.93,ENE,68,0.0,2.0,34,0.00,,,0.00,0,LWC V2.00 B727,2013-03-20 12:50:00,
2013-03-20 06:00:00,57.4,30.7,29.94,ENE,68,0.0,3.0,36,0.00,,,0.00,0,LWC V2.00 B727,2013-03-20 13:00:00,
2013-03-20 06:10:00,57.4,30.7,29.94,ENE,68,0.0,3.0,36,0.00,,,0.00,0,LWC V2.00 B727,2013-03-20 13:10:00,
2013-03-20 06:20:00,57.4,30.7,29.94,ENE,68,0.0,3.0,36,0.00,,,0.00,0,LWC V2.00 B727,2013-03-20 13:20:00,
2013-03-20 06:30:00,56.1,31.5,29.94,ENE,68,0.0,4.0,39,0.00,,,0.00,0,LWC V2.00 B727,2013-03-20 13:30:00,
2013-03-20 06:40:00,56.1,31.5,29.94,ENE,68,0.0,4.0,39,0.00,,,0.00,0,LWC V2.00 B727,2013-03-20 13:40:00,
2013-03-20 06:50:00,56.1,31.5,29.94,ENE,68,0.0,4.0,39,0.00,,,0.00,0,LWC V2.00 B727,2013-03-20 13:50:00,
2013-03-20 07:00:00,57.2,31.2,29.94,ENE,68,1.0,3.0,37,0.00,,,0.00,26,LWC V2.00 B727,2013-03-20 14:00:00,
2013-03-20 07:10:00,57.2,31.2,29.94,ENE,68,1.0,3.0,37,0.00,,,0.00,26,LWC V2.00 B727,2013-03-20 14:10:00,
2013-03-20 07:23:00,58.9,32.0,29.94,ENE,67,0.0,0.0,36,0.00,,,0.00,114,LWC V2.00 B727,2013-03-20 14:23:00,
2013-03-20 07:26:00,59.3,31.7,29.94,ENE,67,0.0,0.0,35,0.00,,,0.00,125,LWC V2.00 B727,2013-03-20 14:26:00,
2013-03-20 07:31:00,59.9,32.9,29.94,ENE,67,0.0,0.0,36,0.00,,,0.00,139,LWC V2.00 B727,2013-03-20 14:31:00,
2013-03-20 07:36:00,59.0,34.1,29.94,ENE,67,0.0,1.0,39,0.00,,,0.00,162,LWC V2.00 B727,2013-03-20 14:36:00,
2013-03-20 07:41:00,59.1,33.5,29.94,ENE,67,0.0,0.0,38,0.00,,,0.00,156,LWC V2.00 B727,2013-03-20 14:41:00,
2013-03-20 07:46:00,60.0,34.3,29.94,ENE,67,0.0,1.0,38,0.00,,,0.00,200,LWC V2.00 B727,2013-03-20 14:46:00,
2013-03-20 07:51:00,60.6,34.2,29.94,ENE,67,0.0,1.0,37,0.00,,,0.00,214,LWC V2.00 B727,2013-03-20 14:51:00,
2013-03-20 07:56:00,61.5,35.0,29.94,ENE,67,0.0,0.0,37,0.00,,,0.00,220,LWC V2.00 B727,2013-03-20 14:56:00,
2013-03-20 08:01:00,61.7,35.2,29.93,ENE,67,0.0,2.0,37,0.00,,,0.00,193,LWC V2.00 B727,2013-03-20 15:01:00,
2013-03-20 08:06:00,61.8,35.3,29.93,ENE,67,0.0,1.0,37,0.00,,,0.00,167,LWC V2.00 B727,2013-03-20 15:06:00,
2013-03-20 08:11:00,61.8,37.2,29.93,ENE,67,0.0,0.0,40,0.00,,,0.00,207,LWC V2.00 B727,2013-03-20 15:11:00,
2013-03-20 08:16:00,60.4,36.0,29.93,ENE,67,0.0,0.0,40,0.00,,,0.00,192,LWC V2.00 B727,2013-03-20 15:16:00,
2013-03-20 08:21:00,59.6,36.5,29.93,ENE,67,0.0,0.0,42,0.00,,,0.00,230,LWC V2.00 B727,2013-03-20 15:21:00,
2013-03-20 08:26:00,60.1,36.3,29.93,ENE,67,0.0,1.0,41,0.00,,,0.00,279,LWC V2.00 B727,2013-03-20 15:26:00,
2013-03-20 08:31:00,61.4,36.9,29.93,ENE,67,0.0,1.0,40,0.00,,,0.00,371,LWC V2.00 B727,2013-03-20 15:31:00,
2013-03-20 08:36:00,63.1,35.7,29.93,ENE,67,1.0,1.0,36,0.00,,,0.00,424,LWC V2.00 B727,2013-03-20 15:36:00,
2013-03-20 08:41:00,64.3,35.3,29.93,ENE,67,0.0,0.0,34,0.00,,,0.00,446,LWC V2.00 B727,2013-03-20 15:41:00,
2013-03-20 08:46:00,64.4,33.9,29.92,ENE,67,0.0,1.0,32,0.00,,,0.00,299,LWC V2.00 B727,2013-03-20 15:46:00,
2013-03-20 08:51:00,65.3,33.1,29.92,ENE,67,0.0,0.0,30,0.00,,,0.00,353,LWC V2.00 B727,2013-03-20 15:51:00,
2013-03-20 08:56:00,65.2,34.6,29.92,ENE,67,0.0,0.0,32,0.00,,,0.00,401,LWC V2.00 B727,2013-03-20 15:56:00,
2013-03-20 09:01:00,65.9,33.6,29.92,ENE,67,0.0,0.0,30,0.00,,,0.00,352,LWC V2.00 B727,2013-03-20 16:01:00,
2013-03-20 09:06:00,66.4,32.3,29.92,ENE,67,1.0,1.0,28,0.00,,,0.00,306,LWC V2.00 B727,2013-03-20 16:06:00,
2013-03-20 09:11:00,66.4,30.5,29.92,ENE,67,0.0,1.0,26,0.00,,,0.00,376,LWC V2.00 B727,2013-03-20 16:11:00,
2013-03-20 09:16:00,66.8,31.7,29.92,ENE,67,0.0,1.0,27,0.00,,,0.00,401,LWC V2.00 B727,2013-03-20 16:16:00,
2013-03-20 09:21:00,66.5,31.5,29.92,ENE,67,0.0,0.0,27,0.00,,,0.00,336,LWC V2.00 B727,2013-03-20 16:21:00,
2013-03-20 09:26:00,66.7,29.8,29.92,ENE,67,0.0,1.0,25,0.00,,,0.00,309,LWC V2.00 B727,2013-03-20 16:26:00,
2013-03-20 09:31:00,67.3,32.2,29.92,ENE,67,0.0,0.0,27,0.00,,,0.00,316,LWC V2.00 B727,2013-03-20 16:31:00,
2013-03-20 09:36:00,67.3,33.1,29.92,ENE,67,0.0,0.0,28,0.00,,,0.00,316,LWC V2.00 B727,2013-03-20 16:36:00,
2013-03-20 09:41:00,67.4,31.3,29.92,ENE,67,0.0,0.0,26,0.00,,,0.00,341,LWC V2.00 B727,2013-03-20 16:41:00,
2013-03-20 09:46:00,67.5,31.4,29.91,ENE,67,1.0,2.0,26,0.00,,,0.00,364,LWC V2.00 B727,2013-03-20 16:46:00,
2013-03-20 09:51:00,67.8,32.6,29.90,ENE,67,0.0,1.0,27,0.00,,,0.00,425,LWC V2.00 B727,2013-03-20 16:51:00,
2013-03-20 09:56:00,68.7,33.4,29.90,ENE,67,0.0,1.0,27,0.00,,,0.00,471,LWC V2.00 B727,2013-03-20 16:56:00,
2013-03-20 10:01:00,68.4,34.0,29.90,ENE,67,0.0,1.0,28,0.00,,,0.00,512,LWC V2.00 B727,2013-03-20 17:01:00,
2013-03-20 10:06:00,69.3,33.9,29.90,ENE,67,0.0,0.0,27,0.00,,,0.00,649,LWC V2.00 B727,2013-03-20 17:06:00,
2013-03-20 10:11:00,70.8,31.2,29.90,ENE,67,0.0,3.0,23,0.00,,,0.00,580,LWC V2.00 B727,2013-03-20 17:11:00,
2013-03-20 10:16:00,71.4,30.6,29.90,ENE,67,0.0,0.0,22,0.00,,,0.00,700,LWC V2.00 B727,2013-03-20 17:16:00,
2013-03-20 10:21:00,71.5,30.7,29.90,ENE,57,0.0,1.0,22,0.00,,,0.00,584,LWC V2.00 B727,2013-03-20 17:21:00,
2013-03-20 10:26:00,72.2,31.2,29.90,North,5,1.0,4.0,22,0.00,,,0.00,559,LWC V2.00 B727,2013-03-20 17:26:00,
2013-03-20 10:31:00,72.5,30.3,29.91,North,5,0.0,1.0,21,0.00,,,0.00,642,LWC V2.00 B727,2013-03-20 17:31:00,
2013-03-20 10:36:00,72.6,32.7,29.91,WNW,284,3.0,3.0,23,0.00,,,0.00,631,LWC V2.00 B727,2013-03-20 17:36:00,
2013-03-20 10:41:00,72.6,32.7,29.91,West,281,0.0,4.0,23,0.00,,,0.00,613,LWC V2.00 B727,2013-03-20 17:41:00,
2013-03-20 10:46:00,72.3,32.4,29.92,West,281,0.0,1.0,23,0.00,,,0.00,671,LWC V2.00 B727,2013-03-20 17:46:00,
2013-03-20 10:51:00,72.8,31.7,29.92,West,278,0.0,3.0,22,0.00,,,0.00,628,LWC V2.00 B727,2013-03-20 17:51:00,
2013-03-20 10:56:00,72.8,33.9,29.92,WNW,297,0.0,0.0,24,0.00,,,0.00,578,LWC V2.00 B727,2013-03-20 17:56:00,
2013-03-20 11:01:00,73.0,33.0,29.91,WNW,297,0.0,1.0,23,0.00,,,0.00,585,LWC V2.00 B727,2013-03-20 18:01:00,
2013-03-20 11:06:00,73.9,34.8,29.91,WNW,296,0.0,2.0,24,0.00,,,0.00,543,LWC V2.00 B727,2013-03-20 18:06:00,
2013-03-20 11:11:00,73.5,33.4,29.91,WNW,294,0.0,2.0,23,0.00,,,0.00,619,LWC V2.00 B727,2013-03-20 18:11:00,
2013-03-20 11:16:00,74.1,31.7,29.91,NNE,26,4.0,6.0,21,0.00,,,0.00,568,LWC V2.00 B727,2013-03-20 18:16:00,
2013-03-20 11:21:00,73.3,31.0,29.91,NNE,26,0.0,0.0,21,0.00,,,0.00,541,LWC V2.00 B727,2013-03-20 18:21:00,
2013-03-20 11:26:00,73.9,30.3,29.91,ENE,63,0.0,0.0,20,0.00,,,0.00,624,LWC V2.00 B727,2013-03-20 18:26:00,
2013-03-20 11:31:00,73.7,31.3,29.91,ENE,63,0.0,0.0,21,0.00,,,0.00,708,LWC V2.00 B727,2013-03-20 18:31:00,
2013-03-20 11:36:00,74.8,29.8,29.91,ENE,59,0.0,1.0,19,0.00,,,0.00,758,LWC V2.00 B727,2013-03-20 18:36:00,
2013-03-20 11:41:00,76.1,32.1,29.91,ENE,59,0.0,1.0,20,0.00,,,0.00,650,LWC V2.00 B727,2013-03-20 18:41:00,
2013-03-20 11:46:00,75.6,30.4,29.90,SW,215,1.0,1.0,19,0.00,,,0.00,601,LWC V2.00 B727,2013-03-20 18:46:00,
2013-03-20 11:51:00,75.5,30.3,29.90,SW,215,0.0,4.0,19,0.00,,,0.00,650,LWC V2.00 B727,2013-03-20 18:51:00,
2013-03-20 11:56:00,76.0,30.8,29.90,SW,229,0.0,4.0,19,0.00,,,0.00,701,LWC V2.00 B727,2013-03-20 18:56:00,
2013-03-20 12:01:00,75.5,29.0,29.90,SW,229,0.0,1.0,18,0.00,,,0.00,610,LWC V2.00 B727,2013-03-20 19:01:00,
2013-03-20 12:06:00,76.0,30.8,29.90,WSW,240,1.0,4.0,19,0.00,,,0.00,570,LWC V2.00 B727,2013-03-20 19:06:00,
2013-03-20 12:11:00,76.2,30.9,29.90,SW,231,2.0,5.0,19,0.00,,,0.00,566,LWC V2.00 B727,2013-03-20 19:11:00,
2013-03-20 12:16:00,76.0,30.8,29.90,SW,231,0.0,0.0,19,0.00,,,0.00,582,LWC V2.00 B727,2013-03-20 19:16:00,
2013-03-20 12:21:00,76.1,30.8,29.89,SSE,162,0.0,0.0,19,0.00,,,0.00,682,LWC V2.00 B727,2013-03-20 19:21:00,
2013-03-20 12:26:00,77.1,31.7,29.89,South,175,0.0,3.0,19,0.00,,,0.00,724,LWC V2.00 B727,2013-03-20 19:26:00,
2013-03-20 12:31:00,76.0,29.4,29.88,SSE,151,0.0,1.0,18,0.00,,,0.00,585,LWC V2.00 B727,2013-03-20 19:31:00,
2013-03-20 12:36:00,76.4,29.8,29.88,ENE,67,0.0,0.0,18,0.00,,,0.00,494,LWC V2.00 B727,2013-03-20 19:36:00,
2013-03-20 12:41:00,76.8,27.2,29.88,SW,225,2.0,6.0,16,0.00,,,0.00,515,LWC V2.00 B727,2013-03-20 19:41:00,
2013-03-20 12:46:00,76.3,28.3,29.88,SW,224,1.0,5.0,17,0.00,,,0.00,608,LWC V2.00 B727,2013-03-20 19:46:00,
2013-03-20 12:51:00,76.7,28.6,29.88,SW,234,5.0,6.0,17,0.00,,,0.00,735,LWC V2.00 B727,2013-03-20 19:51:00,
2013-03-20 12:56:00,77.4,27.7,29.88,SW,235,0.0,2.0,16,0.00,,,0.00,693,LWC V2.00 B727,2013-03-20 19:56:00,
2013-03-20 13:01:00,78.4,28.5,29.88,NNW,333,0.0,2.0,16,0.00,,,0.00,496,LWC V2.00 B727,2013-03-20 20:01:00,
2013-03-20 13:06:00,78.0,26.6,29.88,WSW,247,3.0,11.0,15,0.00,,,0.00,833,LWC V2.00 B727,2013-03-20 20:06:00,
2013-03-20 13:11:00,78.0,28.2,29.87,West,260,2.0,5.0,16,0.00,,,0.00,721,LWC V2.00 B727,2013-03-20 20:11:00,
2013-03-20 13:16:00,78.8,27.2,29.87,WNW,300,3.0,5.0,15,0.00,,,0.00,737,LWC V2.00 B727,2013-03-20 20:16:00,
2013-03-20 13:21:00,79.3,27.6,29.87,WSW,239,6.0,6.0,15,0.00,,,0.00,728,LWC V2.00 B727,2013-03-20 20:21:00,
2013-03-20 13:26:00,79.0,27.4,29.87,SSW,201,7.0,7.0,15,0.00,,,0.00,786,LWC V2.00 B727,2013-03-20 20:26:00,
2013-03-20 13:31:00,78.5,27.0,29.87,SW,215,9.0,10.0,15,0.00,,,0.00,480,LWC V2.00 B727,2013-03-20 20:31:00,
2013-03-20 13:36:00,77.2,27.5,29.86,West,261,0.0,5.0,16,0.00,,,0.00,348,LWC V2.00 B727,2013-03-20 20:36:00,
2013-03-20 13:41:00,77.0,28.8,29.86,SW,220,9.0,10.0,17,0.00,,,0.00,343,LWC V2.00 B727,2013-03-20 20:41:00,
2013-03-20 13:46:00,76.5,28.4,29.86,SE,136,3.0,4.0,17,0.00,,,0.00,387,LWC V2.00 B727,2013-03-20 20:46:00,
2013-03-20 13:51:00,76.1,28.1,29.85,SSE,162,0.0,1.0,17,0.00,,,0.00,425,LWC V2.00 B727,2013-03-20 20:51:00,
2013-03-20 13:56:00,76.6,28.5,29.85,South,178,1.0,1.0,17,0.00,,,0.00,396,LWC V2.00 B727,2013-03-20 20:56:00,
2013-03-20 14:01:00,77.0,25.8,29.85,SW,230,6.0,7.0,15,0.00,,,0.00,367,LWC V2.00 B727,2013-03-20 21:01:00,
2013-03-20 14:06:00,77.1,25.9,29.84,WNW,303,2.0,6.0,15,0.00,,,0.00,394,LWC V2.00 B727,2013-03-20 21:06:00,
2013-03-20 14:11:00,77.6,26.3,29.84,WSW,250,8.0,8.0,15,0.00,,,0.00,622,LWC V2.00 B727,2013-03-20 21:11:00,
2013-03-20 14:16:00,78.2,26.8,29.84,West,268,2.0,5.0,15,0.00,,,0.00,654,LWC V2.00 B727,2013-03-20 21:16:00,
2013-03-20 14:21:00,78.7,27.2,29.84,WSW,243,3.0,6.0,15,0.00,,,0.00,663,LWC V2.00 B727,2013-03-20 21:21:00,
2013-03-20 14:26:00,78.6,27.1,29.84,WNW,288,2.0,5.0,15,0.00,,,0.00,680,LWC V2.00 B727,2013-03-20 21:26:00,
2013-03-20 14:31:00,79.5,27.8,29.84,NW,309,0.0,3.0,15,0.00,,,0.00,726,LWC V2.00 B727,2013-03-20 21:31:00,
2013-03-20 14:36:00,79.4,27.7,29.84,WNW,297,0.0,3.0,15,0.00,,,0.00,617,LWC V2.00 B727,2013-03-20 21:36:00,
2013-03-20 14:41:00,79.4,27.7,29.84,SW,227,8.0,9.0,15,0.00,,,0.00,810,LWC V2.00 B727,2013-03-20 21:41:00,
2013-03-20 14:46:00,79.6,27.9,29.84,West,267,2.0,5.0,15,0.00,,,0.00,810,LWC V2.00 B727,2013-03-20 21:46:00,
2013-03-20 14:51:00,79.6,27.9,29.83,WNW,285,2.0,5.0,15,0.00,,,0.00,814,LWC V2.00 B727,2013-03-20 21:51:00,
2013-03-20 14:56:00,80.1,26.6,29.83,West,273,5.0,6.0,14,0.00,,,0.00,765,LWC V2.00 B727,2013-03-20 21:56:00,
2013-03-20 15:01:00,80.2,26.7,29.83,SSW,209,2.0,7.0,14,0.00,,,0.00,494,LWC V2.00 B727,2013-03-20 22:01:00,
2013-03-20 15:06:00,79.2,29.1,29.82,WSW,248,4.0,5.0,16,0.00,,,0.00,390,LWC V2.00 B727,2013-03-20 22:06:00,
2013-03-20 15:11:00,78.7,25.5,29.83,SW,225,3.0,6.0,14,0.00,,,0.00,320,LWC V2.00 B727,2013-03-20 22:11:00,
2013-03-20 15:16:00,78.2,26.8,29.83,NW,313,0.0,4.0,15,0.00,,,0.00,360,LWC V2.00 B727,2013-03-20 22:16:00,
2013-03-20 15:21:00,78.4,26.9,29.82,WSW,238,0.0,4.0,15,0.00,,,0.00,596,LWC V2.00 B727,2013-03-20 22:21:00,
2013-03-20 15:26:00,78.2,26.8,29.83,NW,322,3.0,8.0,15,0.00,,,0.00,424,LWC V2.00 B727,2013-03-20 22:26:00,
2013-03-20 15:31:00,77.5,26.2,29.82,North,355,0.0,3.0,15,0.00,,,0.00,325,LWC V2.00 B727,2013-03-20 22:31:00,
2013-03-20 15:36:00,77.9,28.1,29.82,WSW,252,0.0,4.0,16,0.00,,,0.00,295,LWC V2.00 B727,2013-03-20 22:36:00,
2013-03-20 15:41:00,78.0,28.2,29.82,WSW,257,3.0,7.0,16,0.00,,,0.00,292,LWC V2.00 B727,2013-03-20 22:41:00,
2013-03-20 15:46:00,77.8,28.0,29.82,West,263,6.0,6.0,16,0.00,,,0.00,359,LWC V2.00 B727,2013-03-20 22:46:00,
2013-03-20 15:51:00,78.1,26.7,29.81,WNW,296,0.0,5.0,15,0.00,,,0.00,478,LWC V2.00 B727,2013-03-20 22:51:00,
2013-03-20 15:56:00,79.0,27.4,29.81,WNW,290,1.0,7.0,15,0.00,,,0.00,603,LWC V2.00 B727,2013-03-20 22:56:00,
2013-03-20 16:01:00,78.6,27.1,29.81,West,267,1.0,2.0,15,0.00,,,0.00,371,LWC V2.00 B727,2013-03-20 23:01:00,
2013-03-20 16:06:00,77.3,26.0,29.81,West,260,2.0,4.0,15,0.00,,,0.00,320,LWC V2.00 B727,2013-03-20 23:06:00,
2013-03-20 16:11:00,77.9,28.1,29.80,WSW,240,0.0,1.0,16,0.00,,,0.00,508,LWC V2.00 B727,2013-03-20 23:11:00,
2013-03-20 16:16:00,78.5,27.0,29.80,SW,223,1.0,6.0,15,0.00,,,0.00,396,LWC V2.00 B727,2013-03-20 23:16:00,
2013-03-20 16:21:00,78.7,28.7,29.79,West,277,2.0,4.0,16,0.00,,,0.00,413,LWC V2.00 B727,2013-03-20 23:21:00,
2013-03-20 16:27:00,78.8,27.2,29.79,West,271,0.0,0.0,15,0.00,,,0.00,371,LWC V2.00 B727,2013-03-20 23:27:00,
2013-03-20 16:32:00,78.1,26.7,29.79,West,269,0.0,0.0,15,0.00,,,0.00,320,LWC V2.00 B727,2013-03-20 23:32:00,
2013-03-20 16:37:00,78.2,26.8,29.79,West,269,2.0,2.0,15,0.00,,,0.00,223,LWC V2.00 B727,2013-03-20 23:37:00,
2013-03-20 16:42:00,77.5,27.8,29.78,SSE,152,1.0,5.0,16,0.00,,,0.00,295,LWC V2.00 B727,2013-03-20 23:42:00,
2013-03-20 16:47:00,77.2,27.5,29.78,SSW,205,0.0,1.0,16,0.00,,,0.00,188,LWC V2.00 B727,2013-03-20 23:47:00,
2013-03-20 16:52:00,77.5,27.8,29.78,SSW,204,3.0,3.0,16,0.00,,,0.00,186,LWC V2.00 B727,2013-03-20 23:52:00,
2013-03-20 16:56:00,77.5,27.8,29.78,SSW,212,1.0,7.0,16,0.00,,,0.00,174,LWC V2.00 B727,2013-03-20 23:56:00,
2013-03-20 17:01:00,77.5,29.2,29.78,SW,219,5.0,5.0,17,0.00,,,0.00,200,LWC V2.00 B727,2013-03-21 00:01:00,
2013-03-20 17:06:00,77.9,28.1,29.78,SW,225,2.0,6.0,16,0.00,,,0.00,327,LWC V2.00 B727,2013-03-21 00:06:00,
2013-03-20 17:11:00,77.7,29.4,29.78,SSW,211,0.0,7.0,17,0.00,,,0.00,258,LWC V2.00 B727,2013-03-21 00:11:00,
2013-03-20 17:16:00,77.6,27.8,29.78,SSW,211,2.0,4.0,16,0.00,,,0.00,232,LWC V2.00 B727,2013-03-21 00:16:00,
2013-03-20 17:21:00,77.1,27.4,29.78,SSW,211,0.0,1.0,16,0.00,,,0.00,95,LWC V2.00 B727,2013-03-21 00:21:00,
2013-03-20 17:26:00,76.9,28.8,29.78,West,264,1.0,5.0,17,0.00,,,0.00,95,LWC V2.00 B727,2013-03-21 00:26:00,
2013-03-20 17:31:00,76.7,30.0,29.78,WSW,252,0.0,3.0,18,0.00,,,0.00,83,LWC V2.00 B727,2013-03-21 00:31:00,
2013-03-20 17:36:00,76.3,29.7,29.78,West,259,0.0,1.0,18,0.00,,,0.00,111,LWC V2.00 B727,2013-03-21 00:36:00,
2013-03-20 17:41:00,76.3,29.7,29.78,SW,236,1.0,5.0,18,0.00,,,0.00,91,LWC V2.00 B727,2013-03-21 00:41:00,
2013-03-20 17:46:00,76.0,29.4,29.78,SW,228,0.0,4.0,18,0.00,,,0.00,76,LWC V2.00 B727,2013-03-21 00:46:00,
2013-03-20 17:51:00,75.8,29.3,29.78,West,266,0.0,0.0,18,0.00,,,0.00,81,LWC V2.00 B727,2013-03-21 00:51:00,
2013-03-20 17:56:00,75.6,30.4,29.78,West,259,0.0,3.0,19,0.00,,,0.00,81,LWC V2.00 B727,2013-03-21 00:56:00,
2013-03-20 18:02:00,75.6,30.4,29.78,West,263,0.0,2.0,19,0.00,,,0.00,58,LWC V2.00 B727,2013-03-21 01:02:00,
2013-03-20 18:06:00,75.4,30.3,29.79,WNW,293,3.0,4.0,19,0.00,,,0.00,46,LWC V2.00 B727,2013-03-21 01:06:00,
2013-03-20 18:11:00,74.7,31.0,29.78,NW,304,0.0,1.0,20,0.00,,,0.00,37,LWC V2.00 B727,2013-03-21 01:11:00,
2013-03-20 18:16:00,74.1,30.5,29.78,NW,304,0.0,1.0,20,0.00,,,0.00,26,LWC V2.00 B727,2013-03-21 01:16:00,
2013-03-20 18:22:00,73.4,29.9,29.78,NNW,339,1.0,1.0,20,0.00,,,0.00,16,LWC V2.00 B727,2013-03-21 01:22:00,
2013-03-20 18:27:00,73.1,30.8,29.78,NNW,338,0.0,1.0,21,0.00,,,0.00,9,LWC V2.00 B727,2013-03-21 01:27:00,
2013-03-20 18:32:00,72.8,30.6,29.78,NNW,331,0.0,1.0,21,0.00,,,0.00,5,LWC V2.00 B727,2013-03-21 01:32:00,
2013-03-20 18:37:00,72.4,31.4,29.79,NNW,331,0.0,1.0,22,0.00,,,0.00,0,LWC V2.00 B727,2013-03-21 01:37:00,
2013-03-20 18:41:00,72.0,31.1,29.78,NNW,331,0.0,0.0,22,0.00,,,0.00,0,LWC V2.00 B727,2013-03-21 01:41:00,
2013-03-20 18:46:00,71.7,31.9,29.78,NNW,331,0.0,0.0,23,0.00,,,0.00,0,LWC V2.00 B727,2013-03-21 01:46:00,
2013-03-20 18:51:00,71.4,31.7,29.78,NNW,331,0.0,0.0,23,0.00,,,0.00,0,LWC V2.00 B727,2013-03-21 01:51:00,
2013-03-20 18:56:00,71.2,31.5,29.78,NNW,331,0.0,0.0,23,0.00,,,0.00,0,LWC V2.00 B727,2013-03-21 01:56:00,
2013-03-20 19:02:00,70.8,31.2,29.77,NNW,331,0.0,0.0,23,0.00,,,0.00,0,LWC V2.00 B727,2013-03-21 02:02:00,
2013-03-20 19:07:00,69.9,31.5,29.77,NE,50,1.0,3.0,24,0.00,,,0.00,0,LWC V2.00 B727,2013-03-21 02:07:00,
2013-03-20 19:12:00,69.3,32.0,29.77,NE,50,0.0,2.0,25,0.00,,,0.00,0,LWC V2.00 B727,2013-03-21 02:12:00,
2013-03-20 19:17:00,69.0,31.7,29.77,East,84,2.0,3.0,25,0.00,,,0.00,0,LWC V2.00 B727,2013-03-21 02:17:00,
2013-03-20 19:22:00,69.0,31.7,29.77,East,84,1.0,2.0,25,0.00,,,0.00,0,LWC V2.00 B727,2013-03-21 02:22:00,
2013-03-20 19:27:00,69.0,32.7,29.77,East,84,1.0,1.0,26,0.00,,,0.00,0,LWC V2.00 B727,2013-03-21 02:27:00,
2013-03-20 19:32:00,68.8,32.5,29.77,East,85,1.0,1.0,26,0.00,,,0.00,0,LWC V2.00 B727,2013-03-21 02:32:00,
2013-03-20 19:37:00,68.7,33.4,29.77,East,85,0.0,1.0,27,0.00,,,0.00,0,LWC V2.00 B727,2013-03-21 02:37:00,
2013-03-20 19:42:00,68.6,33.3,29.77,East,85,0.0,3.0,27,0.00,,,0.00,0,LWC V2.00 B727,2013-03-21 02:42:00,
2013-03-20 19:47:00,68.5,32.3,29.77,ESE,110,0.0,3.0,26,0.00,,,0.00,0,LWC V2.00 B727,2013-03-21 02:47:00,
2013-03-20 19:52:00,68.3,33.0,29.77,ESE,111,1.0,2.0,27,0.00,,,0.00,0,LWC V2.00 B727,2013-03-21 02:52:00,
2013-03-20 19:56:00,68.3,33.0,29.77,ESE,113,2.0,2.0,27,0.00,,,0.00,0,LWC V2.00 B727,2013-03-21 02:56:00,
2013-03-20 20:02:00,68.3,33.0,29.77,ESE,113,1.0,3.0,27,0.00,,,0.00,0,LWC V2.00 B727,2013-03-21 03:02:00,
2013-03-20 20:07:00,68.6,32.3,29.78,ESE,113,0.0,1.0,26,0.00,,,0.00,0,LWC V2.00 B727,2013-03-21 03:07:00,
2013-03-20 20:12:00,69.0,31.7,29.78,ESE,113,0.0,1.0,25,0.00,,,0.00,0,LWC V2.00 B727,2013-03-21 03:12:00,
2013-03-20 20:17:00,68.2,32.9,29.78,NE,49,4.0,5.0,27,0.00,,,0.00,0,LWC V2.00 B727,2013-03-21 03:17:00,
2013-03-20 20:22:00,67.1,32.9,29.78,NNE,22,0.0,2.0,28,0.00,,,0.00,0,LWC V2.00 B727,2013-03-21 03:22:00,
2013-03-20 20:27:00,67.6,32.4,29.78,NNE,22,0.0,0.0,27,0.00,,,0.00,0,LWC V2.00 B727,2013-03-21 03:27:00,
2013-03-20 20:32:00,68.0,31.8,29.78,NNE,22,0.0,0.0,26,0.00,,,0.00,0,LWC V2.00 B727,2013-03-21 03:32:00,
2013-03-20 20:36:00,67.7,32.5,29.78,NNE,22,0.0,0.0,27,0.00,,,0.00,0,LWC V2.00 B727,2013-03-21 03:36:00,
2013-03-20 20:41:00,67.6,31.5,29.78,NNE,22,0.0,1.0,26,0.00,,,0.00,0,LWC V2.00 B727,2013-03-21 03:41:00,
2013-03-20 20:46:00,67.7,31.6,29.78,NNE,22,0.0,0.0,26,0.00,,,0.00,0,LWC V2.00 B727,2013-03-21 03:46:00,
2013-03-20 20:51:00,67.5,31.4,29.78,NNE,22,0.0,1.0,26,0.00,,,0.00,0,LWC V2.00 B727,2013-03-21 03:51:00,
2013-03-20 20:56:00,67.0,31.9,29.78,NNE,22,2.0,3.0,27,0.00,,,0.00,0,LWC V2.00 B727,2013-03-21 03:56:00,
2013-03-20 21:00:00,66.7,31.7,29.78,NNE,22,2.0,2.0,27,0.00,,,0.00,0,LWC V2.00 B727,2013-03-21 04:00:00,
2013-03-20 21:01:00,66.6,31.6,29.78,NNE,22,0.0,2.0,27,0.00,,,0.00,0,LWC V2.00 B727,2013-03-21 04:01:00,
2013-03-20 21:06:00,66.7,31.7,29.77,NNE,22,2.0,3.0,27,0.00,,,0.00,0,LWC V2.00 B727,2013-03-21 04:06:00,
2013-03-20 21:11:00,66.9,31.8,29.78,NNE,22,0.0,0.0,27,0.00,,,0.00,0,LWC V2.00 B727,2013-03-21 04:11:00,
2013-03-20 21:16:00,66.8,31.7,29.79,NNE,22,0.0,1.0,27,0.00,,,0.00,0,LWC V2.00 B727,2013-03-21 04:16:00,
2013-03-20 21:21:00,66.8,30.8,29.78,East,82,3.0,3.0,26,0.00,,,0.00,0,LWC V2.00 B727,2013-03-21 04:21:00,
2013-03-20 21:26:00,65.9,34.4,29.79,WNW,286,0.0,2.0,31,0.00,,,0.00,0,LWC V2.00 B727,2013-03-21 04:26:00,
2013-03-20 21:31:00,63.8,33.4,29.79,NNE,25,0.0,3.0,32,0.00,,,0.00,0,LWC V2.00 B727,2013-03-21 04:31:00,
2013-03-20 21:36:00,63.9,32.7,29.79,NNE,25,0.0,0.0,31,0.00,,,0.00,0,LWC V2.00 B727,2013-03-21 04:36:00,
2013-03-20 21:41:00,64.3,33.0,29.79,NNE,25,0.0,0.0,31,0.00,,,0.00,0,LWC V2.00 B727,2013-03-21 04:41:00,
2013-03-20 21:46:00,65.0,30.2,29.79,NNE,25,0.0,0.0,27,0.00,,,0.00,0,LWC V2.00 B727,2013-03-21 04:46:00,
2013-03-20 21:51:00,65.8,30.0,29.78,NNE,25,0.0,0.0,26,0.00,,,0.00,0,LWC V2.00 B727,2013-03-21 04:51:00,
2013-03-20 21:56:00,64.9,31.9,29.79,NNE,25,0.0,1.0,29,0.00,,,0.00,0,LWC V2.00 B727,2013-03-21 04:56:00,
2013-03-20 22:01:00,64.8,31.8,29.79,NNE,25,0.0,1.0,29,0.00,,,0.00,0,LWC V2.00 B727,2013-03-21 05:01:00,
2013-03-20 22:06:00,65.3,31.4,29.78,NNE,25,0.0,1.0,28,0.00,,,0.00,0,LWC V2.00 B727,2013-03-21 05:06:00,
2013-03-20 22:11:00,64.6,31.6,29.78,NNE,25,0.0,0.0,29,0.00,,,0.00,0,LWC V2.00 B727,2013-03-21 05:11:00,
2013-03-20 22:16:00,64.1,32.0,29.78,NNE,25,0.0,1.0,30,0.00,,,0.00,0,LWC V2.00 B727,2013-03-21 05:16:00,
2013-03-20 22:21:00,63.7,31.7,29.78,NNE,25,0.0,1.0,30,0.00,,,0.00,0,LWC V2.00 B727,2013-03-21 05:21:00,
2013-03-20 22:26:00,63.7,31.7,29.78,NNE,25,0.0,3.0,30,0.00,,,0.00,0,LWC V2.00 B727,2013-03-21 05:26:00,
2013-03-20 22:31:00,63.7,31.7,29.78,NNE,25,0.0,1.0,30,0.00,,,0.00,0,LWC V2.00 B727,2013-03-21 05:31:00,
2013-03-20 22:36:00,63.7,31.7,29.78,NNE,25,0.0,1.0,30,0.00,,,0.00,0,LWC V2.00 B727,2013-03-21 05:36:00,
2013-03-20 22:41:00,64.2,32.1,29.78,NNE,25,0.0,1.0,30,0.00,,,0.00,0,LWC V2.00 B727,2013-03-21 05:41:00,
2013-03-20 22:46:00,64.6,31.6,29.78,NNE,25,2.0,2.0,29,0.00,,,0.00,0,LWC V2.00 B727,2013-03-21 05:46:00,
2013-03-20 22:51:00,64.6,31.6,29.78,NNE,25,0.0,1.0,29,0.00,,,0.00,0,LWC V2.00 B727,2013-03-21 05:51:00,
2013-03-20 22:56:00,64.7,31.7,29.78,NNE,25,1.0,1.0,29,0.00,,,0.00,0,LWC V2.00 B727,2013-03-21 05:56:00,
2013-03-20 23:01:00,64.4,31.5,29.78,NE,34,2.0,3.0,29,0.00,,,0.00,0,LWC V2.00 B727,2013-03-21 06:01:00,
2013-03-20 23:06:00,64.3,32.2,29.77,NE,38,2.0,4.0,30,0.00,,,0.00,0,LWC V2.00 B727,2013-03-21 06:06:00,
2013-03-20 23:11:00,63.8,31.8,29.77,NE,50,2.0,3.0,30,0.00,,,0.00,0,LWC V2.00 B727,2013-03-21 06:11:00,
2013-03-20 23:16:00,63.7,31.7,29.78,ENE,59,2.0,4.0,30,0.00,,,0.00,0,LWC V2.00 B727,2013-03-21 06:16:00,
2013-03-20 23:21:00,64.0,31.9,29.78,ENE,59,0.0,1.0,30,0.00,,,0.00,0,LWC V2.00 B727,2013-03-21 06:21:00,
2013-03-20 23:26:00,64.5,32.4,29.77,ENE,59,3.0,3.0,30,0.00,,,0.00,0,LWC V2.00 B727,2013-03-21 06:26:00,
2013-03-20 23:31:00,64.9,31.9,29.77,ENE,59,1.0,3.0,29,0.00,,,0.00,0,LWC V2.00 B727,2013-03-21 06:31:00,
2013-03-20 23:36:00,64.7,32.5,29.77,ENE,59,2.0,3.0,30,0.00,,,0.00,0,LWC V2.00 B727,2013-03-21 06:36:00,
2013-03-20 23:41:00,64.3,32.2,29.77,ENE,59,3.0,4.0,30,0.00,,,0.00,0,LWC V2.00 B727,2013-03-21 06:41:00,
2013-03-20 23:46:00,64.0,32.8,29.77,ENE,59,2.0,3.0,31,0.00,,,0.00,0,LWC V2.00 B727,2013-03-21 06:46:00,
2013-03-20 23:51:00,63.6,32.4,29.77,ENE,59,1.0,3.0,31,0.00,,,0.00,0,LWC V2.00 B727,2013-03-21 06:51:00,
2013-03-20 23:56:00,63.5,32.3,29.76,ENE,59,2.0,2.0,31,0.00,,,0.00,0,LWC V2.00 B727,2013-03-21 06:56:00,